Regional Weather Roundup
Issued by NWS

Home | Current Version | Previous Version | Text Only | Print | Product List | Glossary Off
Versions: 1 2 3 4 5 6 7 8 9 10 11 12 13 14 15 16 17 18 19 20 21 22 23 24 25 26 27 28 29 30 31 32 33 34 35 36 37 38 39 40 41 42 43 44 45 46 47 48 49 50

000
ASUS43 KDTX 202310
RWRMI
MICHIGAN HOURLY REGIONAL WEATHER ROUNDUP
NATIONAL WEATHER SERVICE DETROIT/PONTIAC MI
600 PM EST FRI JAN 20 2017

NOTE: "FAIR" INDICATES FEW OR NO CLOUDS BELOW 12,000 FEET WITH NO
SIGNIFICANT WEATHER AND/OR OBSTRUCTION TO VISIBILITY.

MIZ047>049-052>055-059>063-066>070-074>076-081>083-210000-
SOUTHEAST LOWER MICHIGAN

CITY           SKY/WX    TMP DP  RH WIND       PRES   REMARKS
ADRIAN         CLOUDY    41  41 100 CALM      29.72R FOG
ALMA           FOG       34  33  98 CALM      29.68S VSB 1
ANN ARBOR      FOG       39  39 100 S5        29.70R VSB 3/4
BAD AXE        CLOUDY    34  34 100 CALM      29.68F FOG
CARO           CLOUDY    35  35 100 CALM      29.68R FOG
DETROIT CITY   CLOUDY    39  39 100 CALM      29.70R FOG
DETROIT        CLOUDY    40  38  93 S5        29.71R FOG
FLINT          FOG       36  36 100 CALM      29.68S VSB 1/4
GROSSE ILE     FOG       34  34  99 S6        29.71R VSB 1/2 WCI  29
HILLSDALE      FOG       39  39 100 SW3       29.69R VSB 1/2
HOWELL         CLOUDY    37  37  97 S5        29.68R FOG     WCI  34

CITY           SKY/WX    TMP DP  RH WIND       PRES   REMARKS
JACKSON        CLOUDY    39  38  96 SW6       29.70R FOG     WCI  35
LAMBERTVILLE   CLOUDY    46  43  90 CALM      29.72R FOG
LANSING        FOG       37  35  92 SW3       29.69R VSB 1
LAPEER         FOG       36  36 100 S3        29.68R VSB 1/2
MASON          FOG       37  37 100 CALM      29.69R VSB 1
MONROE         CLOUDY    41  41 100 CALM      29.71R FOG
MT. CLEMENS    FOG       38  38 100 SW6       29.67R VSB 1/8 WCI  34
PONTIAC        FOG       37  35  92 S5        29.67R VSB 1/16WCI  33
PORT HOPE        N/A     35  34  96 SE5       29.68S WCI  31
PORT HURON     FOG       37  37 100 CALM      29.69R VSB 1/4
TRI CITIES     FOG       34  34 100 NE6       29.69R VSB 1/4 WCI  29
MIDLAND        CLOUDY    35  34  96 NE6       29.67F FOG     WCI  30
TROY           FOG       39  38  95 CALM      29.70S VSB 1
SAGINAW HB     FOG       34  32  93 CALM      29.69R VSB 1/2
$$
MIZ043>046-050>051-056>058-064>065-071>073-077>080-210000-
SOUTHWEST LOWER MICHIGAN

CITY           SKY/WX    TMP DP  RH WIND       PRES   REMARKS
BATTLE CREEK   CLOUDY    39  39 100 S3        29.70R FOG
BENTON HARBOR  CLOUDY    42  40  92 SE3       29.67S FOG
BIG RAPIDS     CLOUDY    33  32  96 E3        29.66S
COLDWATER      FOG       41  41 100 CALM      29.69S VSB 3/4
FREMONT        CLOUDY    34  34 100 SE5       29.68R WCI  30
HOLLAND        CLOUDY    38  36  92 E6        29.68R WCI  33
GRAND RAPIDS   FOG       35  34  96 E3        29.69R VSB 1/2
IONIA          FOG       34  33  99 CALM      29.69R VSB 1/4
KALAMAZOO      FOG       40  38  93 CALM      29.68F VSB 1/2
LUDINGTON      CLOUDY    36  36  99 E3        29.66S FOG
MARSHALL       CLOUDY    39  39  98 CALM      29.69R FOG
MOUNT PLEASANT CLOUDY    34  33  98 CALM      29.68S FOG
MUSKEGON       CLOUDY    37  36  96 SE7       29.69R FOG     WCI  32
SOUTH HAVEN    CLOUDY    40  40  98 CALM      29.67S FOG
$$
MIZ016>042-210000-
NORTHERN LOWER MICHIGAN

CITY           SKY/WX    TMP DP  RH WIND       PRES   REMARKS
ALPENA         FOG       34  33  96 SE5       29.71R VSB 1/4 WCI  30
BEAVER ISLAND  LGT RAIN  33  33 100 E3        29.69R
BELLAIRE       CLOUDY    35  33  92 CALM      29.68S
CADILLAC       CLOUDY    33  32  95 CALM      29.65S FOG
CHARLEVOIX     LGT RAIN  36  34  95 CALM      29.72R
FRANKFORT      LGT RAIN  37  35  94 CALM      29.66S
GAYLORD        CLOUDY    36  31  82 SE5       29.67R WCI  32
GRAYLING       CLOUDY    34  33  95 E3        29.68R FOG
HARBOR SPRINGS LGT SNOW  34  33  98 E6        29.69R WCI  29
HOUGHTON LAKE  LGT RAIN  34  32  92 CALM      29.67F FOG
MANISTEE       CLOUDY    37  35  92 SE5       29.66S WCI  33
OSCODA         CLOUDY    35  34  97 CALM      29.70R FOG
PELLSTON       LGT RAIN  34  32  92 SE3       29.69R FOG
ROGERS CITY    CLOUDY    34  33  95 SE6       29.72R FOG     WCI  29
TRAVERSE CITY  CLOUDY    37  33  85 CALM      29.67R
$$
MIZ007>008-015-210000-
EASTERN UPPER MICHIGAN

CITY           SKY/WX    TMP DP  RH WIND       PRES   REMARKS
KINROSS        CLOUDY    32  31  96 E9        29.71S WCI  24
MACKINAC ISLAN FOG       33  33 100 E6        29.68F VSB 1/4 WCI  27
NEWBERRY       FOG       33  32  96 E5        29.67S VSB 1   WCI  28
S. S. MARIE    CLOUDY    33  31  92 SE9       29.70F WCI  25
MUNISING         N/A     35  34  96 S3        29.68R
$$
MIZ004>006-011>014-085-210000-
CENTRAL UPPER MICHIGAN

CITY           SKY/WX    TMP DP  RH WIND       PRES   REMARKS
MANISTIQUE     LGT SNOW  32  32  99 E3        29.69R
ESCANABA       LGT SNOW  33  33 100 NE3       29.68F FOG
SAWYER-GWINN   LGT RAIN  34  32  93 SW6       29.66R WCI  29
$$
MIZ001>003-009>011-084-210000-
WESTERN UPPER MICHIGAN

CITY           SKY/WX    TMP DP  RH WIND       PRES   REMARKS
IRON MOUNTAIN  LGT RAIN  33  30  88 N5        29.63F FOG     WCI  29
HOUGHTON       LGT RAIN  36  29  75 NW3       29.63R
COPPER HARBOR    N/A     36  32  85 VRB3      29.65R
IRONWOOD       LGT RAIN  37  35  92 E5        29.60F WCI  33
$$

ABBREVIATIONS USED IN REMARKS
   TC - TEMPERATURE IN CELSIUS
  WCI - WIND CHILL INDEX
   HX - HEAT INDEX
  VSB - VISIBILITY




USA.gov is the U.S. government's official web portal to all federal, state and local government web resources and services.